User: anonymous
Location: St. Malo Provincial Park
(49.3214°N, 96.9305°W)
Time: 16:53:38
(UTC-05:00)
Language:

Iridium 6 - Orbit

View from above orbital plane
View from above orbital plane
View from above satellite
View from above satellite

Ground track
Ground track

The orbit data is extracted from the following two-line orbital elements,

1 24794U 97020C   14106.48517463  .00000315  00000-0  10537-3 0  5875
2 24794 086.3951 082.7953 0002275 105.6507 254.4940 14.34212833887264
Epoch (UTC): 16 April 2014 11:38:39
Eccentricity: 0.0002275
inclination: 86.3951°
perigee height: 776 km
apogee height: 779 km
right ascension of ascending node: 82.7953°
argument of perigee: 105.6507°
revolutions per day: 14.34212833
mean anomaly at epoch: 254.4940°
orbit number at epoch: 88726

The dashed part of the orbit path shows where the satellite is in the earth's shadow,  

DLR